Location: Arbon
(43.0005°N, 0.7472°E)
Time: 10:44:46
(UTC+00:00)

NOSS 3-1 (C) - Pass Details

Date: 22 April 2026
Orbit: 618 x 1583 km, 63.4° (Epoch: 10 January)

Event Time Altitude Azimuth Distance (km) Brightness Sun altitude
Rises 21:10:00 0° 323° (NW) 3,799 8.0 -22.9°
Reaches altitude 10° 21:12:23 10° 323° (NW) 2,969 7.1 -23.2°
Maximum altitude 21:19:41 87° 237° (WSW) 1,307 4.0 -24.1°
Enters shadow 21:23:02 42° 149° (SSE) 1,865 4.4 -24.5°
